Date,TemperatureHighF,TemperatureAvgF,TemperatureLowF,DewpointHighF,DewpointAvgF,DewpointLowF,HumidityHigh,HumidityAvg,HumidityLow,PressureMaxIn,PressureMinIn,WindSpeedMaxMPH,WindSpeedAvgMPH,GustSpeedMaxMPH,PrecipitationSumIn
2013-9-1,76,71,69,71,68,-100,97,93,84,0.00,40.00,8,5,14,0.03
2013-9-2,75,71,69,72,70,68,98,96,87,0.00,40.00,7,4,26,0.57
2013-9-3,73,69,63,72,68,62,99,98,94,0.00,40.00,5,2,13,1.22
2013-9-4,80,68,57,63,59,56,98,77,50,0.00,40.00,11,4,20,0.01
2013-9-5,78,66,54,66,59,53,98,80,53,0.00,40.00,9,4,18,0.01
2013-9-6,70,59,49,53,47,42,98,67,40,0.00,40.00,8,6,14,0.00
2013-9-7,75,62,45,59,52,44,98,74,44,0.00,40.00,11,5,22,0.00
2013-9-8,82,69,54,63,54,-100,94,64,36,0.00,40.00,11,6,23,0.00
2013-9-9,68,59,44,53,47,41,93,65,46,0.00,40.00,7,6,12,0.00
2013-9-10,72,68,63,68,62,53,96,83,70,0.00,40.00,12,7,19,0.01
2013-9-11,83,73,66,73,68,65,98,88,69,0.00,40.00,8,5,18,0.01
2013-9-12,76,70,68,70,68,67,97,93,81,0.00,40.00,11,6,18,0.28
2013-9-13,76,70,62,70,66,58,98,88,60,0.00,40.00,9,4,18,0.38
2013-9-14,71,61,51,58,53,49,96,76,53,0.00,40.00,8,4,16,0.01
2013-9-15,68,54,46,54,47,-100,97,81,50,0.00,40.00,9,4,17,0.00
2013-9-16,69,59,52,57,54,40,97,84,61,0.00,40.00,10,4,22,0.02
2013-9-17,64,53,41,42,37,35,95,56,35,0.00,40.00,15,9,25,0.02
2013-9-18,54,45,43,44,40,39,92,84,68,0.00,40.00,5,4,10,0.00
2013-9-19,73,60,47,57,52,46,98,79,50,0.00,40.00,10,4,17,0.00
2013-9-20,72,61,46,63,57,45,98,88,68,0.00,40.00,8,4,12,0.00
2013-9-21,73,64,51,66,60,50,98,90,77,0.00,40.00,11,6,15,0.00
2013-9-22,73,64,51,66,56,-100,97,77,53,0.00,40.00,18,8,29,0.44
2013-9-23,66,55,45,49,44,41,93,69,45,0.00,40.00,9,6,16,0.05
2013-9-24,69,53,39,51,43,38,96,72,41,0.00,40.00,7,4,18,0.00
2013-9-25,69,57,45,53,48,42,94,72,47,0.00,40.00,8,5,16,0.00
2013-9-26,66,58,48,51,49,45,96,74,49,0.00,40.00,9,5,15,0.00
2013-9-27,66,58,47,53,50,46,97,78,59,0.00,40.00,9,5,17,0.00
2013-9-28,73,59,45,57,51,44,97,78,46,0.00,40.00,9,5,17,0.00
2013-9-29,68,56,45,56,49,-100,98,80,57,0.00,40.00,8,5,14,0.00
2013-9-30,71,59,50,56,53,49,97,83,50,0.00,40.00,10,5,15,0.00